This demonstration page uses our WeatherBlox Daily Observations layout. Learn more.

Left ArrowRight Arrow

39.51506, -84.39828

Hourly Observations for October 26, 2018

Temp ( °F °C ) Dew Point ( °F °C ) Humidity (%) Winds ( mph kmh ) Pressure ( in mb ) Visibility ( mi km ) Precip ( " mm )
12:15 am 00:15 Partly Cloudy 46 7.8 37 2.7 70 70 NE 3 6 30 1016 10 16.0934 0 0
12:35 am 00:35 Cloudy 46 7.5 38 3.3 75 75 Calm 30 1016 10 16.0934 0 0
12:55 am 00:55 Cloudy 46 7.5 38 3.1 74 74 NE 3 6 30 1016 10 16.0934 0 0
1:15 am 01:15 Partly Cloudy 45 7.2 38 3.1 75 75 NE 5 7 30 1016 10 16.0934 0 0
1:35 am 01:35 Partly Cloudy 45 7.3 37 3 74 74 NE 3 6 30 1016 10 16.0934 0 0
1:55 am 01:55 Cloudy 45 7.1 38 3.1 76 76 NE 3 6 30 1016 10 16.0934 0 0
2:15 am 02:15 Cloudy 45 7.1 38 3.2 76 76 NE 3 6 29.97 1015 10 16.0934 0 0
2:35 am 02:35 Cloudy 45 7.1 38 3.2 76 76 NE 5 7 29.97 1015 10 16.0934 0 0
2:55 am 02:55 Cloudy 45 7.1 38 3.1 76 76 NE 5 7 29.97 1015 10 16.0934 0 0
3:15 am 03:15 Cloudy 45 7.2 38 3.1 75 75 NE 6 9 29.97 1015 10 16.0934 0 0
3:35 am 03:35 Cloudy 45 7.1 38 3.1 76 76 NE 6 9 29.94 1014 10 16.0934 0 0
3:55 am 03:55 Cloudy 45 7.1 37 3 75 75 ENE 7 11 29.94 1014 10 16.0934 0 0
4:15 am 04:15 Cloudy 45 7.1 37 3 75 75 NE 6 9 29.91 1013 10 16.0934 0 0
4:35 am 04:35 Partly Cloudy 45 7 37 2.9 75 75 NE 5 7 29.91 1013 10 16.0934 0 0
4:55 am 04:55 Cloudy 44 6.6 37 2.9 77 77 NE 7 11 29.91 1013 10 16.0934 0 0
5:15 am 05:15 Cloudy 45 7.2 37 3 75 75 NE 8 13 29.88 1012 10 16.0934 0 0
5:35 am 05:35 Cloudy 45 7.1 37 2.8 74 74 ENE 6 9 29.88 1012 10 16.0934 0 0
5:55 am 05:55 Mostly Cloudy 44 6.9 37 2.8 75 75 ENE 6 9 29.88 1012 10 16.0934 0 0
6:15 am 06:15 Mostly Cloudy 45 7 37 2.6 74 74 NE 8 13 29.88 1012 10 16.0934 0 0
6:35 am 06:35 Cloudy 45 7.3 37 2.7 73 73 NE 7 11 29.88 1012 10 16.0934 0 0
6:55 am 06:55 Cloudy 45 7.1 37 2.7 74 74 NNE 8 13 29.85 1011 10 16.0934 0 0
7:15 am 07:15 Partly Cloudy 45 7.2 37 2.7 73 73 N 8 13 29.85 1011 10 16.0934 0 0
7:35 am 07:35 Cloudy 45 7.1 37 2.8 74 74 Calm 29.85 1011 10 16.0934 0 0
7:55 am 07:55 Cloudy 45 7.1 37 2.9 75 75 NE 3 6 29.85 1011 10 16.0934 0 0
8:15 am 08:15 Cloudy 45 7 37 3 76 76 E 5 7 29.85 1011 10 16.0934 0 0
8:35 am 08:35 Cloudy 45 7.2 38 3.1 75 75 Calm 29.85 1011 10 16.0934 0 0
8:55 am 08:55 Cloudy 45 7.2 38 3.2 76 76 ENE 5 7 29.85 1011 10 16.0934 0 0
9:15 am 09:15 Cloudy with Light Rain 45 7.1 38 3.6 79 79 NE 8 13 29.85 1011 10 16.0934 0 0
9:35 am 09:35 Cloudy with Light Rain 45 7.2 39 3.9 80 80 NE 7 11 29.85 1011 10 16.0934 0 0
9:55 am 09:55 Cloudy 46 7.6 39 3.9 78 78 ENE 8 13 29.85 1011 10 16.0934 0 0
10:15 am 10:15 Cloudy 46 7.7 38 3.6 76 76 ENE 6 9 29.85 1011 10 16.0934 0 0
10:35 am 10:35 Cloudy 47 8.1 39 3.7 74 74 ENE 7 11 29.85 1011 10 16.0934 0 0
10:55 am 10:55 Cloudy with Light Rain 47 8.2 39 3.8 74 74 NE 6 9 29.85 1011 10 16.0934 0 0
11:15 am 11:15 Cloudy 47 8.6 39 4 73 73 NE 8 13 29.83 1010 10 16.0934 0 0
11:35 am 11:35 Cloudy 49 9.2 40 4.3 72 72 NE 9 15 29.83 1010 10 16.0934 0 0
11:55 am 11:55 Cloudy 48 9.1 39 4.1 71 71 E 9 15 29.83 1010 10 16.0934 0 0
12:15 pm 12:15 Cloudy with Light Rain 47 8.3 41 5.2 81 81 ENE 9 15 29.83 1010 5 8.0467 0 0
12:35 pm 12:35 Cloudy with Drizzle 47 8.1 43 6.2 88 88 NE 7 11 29.8 1009 10 16.0934 0 0
12:55 pm 12:55 Cloudy with Drizzle 46 8 43 6.1 88 88 NE 9 15 29.8 1009 5 8.0467 0 0
1:15 pm 13:15 Cloudy with Drizzle 46 7.9 44 6.5 91 91 NNE 9 15 29.8 1009 4 6.43736 0 0
1:35 pm 13:35 Cloudy with Drizzle 46 8 45 7.1 94 94 NNE 9 15 29.77 1008 2 3.21868 0 0
1:55 pm 13:55 Cloudy with Light Rain 46 7.9 45 7 94 94 NNE 9 15 29.77 1008 2 3.21868 0 0
2:15 pm 14:15 Cloudy with Light Rain 46 7.9 45 7.1 95 95 NNE 10 17 29.74 1007 2.5 4.02335 0 0
2:35 pm 14:35 Cloudy with Light Rain 46 8 45 7.4 96 96 NNE 8 13 29.74 1007 1.5 2.41401 0 0
2:55 pm 14:55 Cloudy with Light Rain 46 8 45 7.4 96 96 NE 9 15 29.74 1007 2 3.21868 0.01 0.254
3:15 pm 15:15 Cloudy with Light Rain 47 8.1 45 7.4 95 95 NNE 9 15 29.74 1007 3.5 5.63269 0 0
3:35 pm 15:35 Cloudy with Light Rain 47 8.2 45 7.4 95 95 NNE 8 13 29.71 1006 2 3.21868 0.01 0.254
3:55 pm 15:55 Cloudy with Light Rain 47 8.3 46 7.7 96 96 NE 8 13 29.71 1006 3 4.82802 0.01 0.254
4:15 pm 16:15 Cloudy with Light Rain 47 8.4 46 7.8 96 96 NE 7 11 29.71 1006 2 3.21868 0 0
4:35 pm 16:35 Cloudy with Light Rain 47 8.4 46 7.8 96 96 NE 9 15 29.71 1006 3 4.82802 0.01 0.254
4:55 pm 16:55 Cloudy with Drizzle 47 8.5 46 7.9 96 96 NNE 8 13 29.71 1006 3 4.82802 0.01 0.254
5:15 pm 17:15 Cloudy with Drizzle 47 8.5 46 7.8 95 95 NNE 8 13 29.71 1006 5 8.0467 0 0
5:35 pm 17:35 Cloudy with Light Rain 47 8.5 46 7.8 95 95 NNE 7 11 29.71 1006 3 4.82802 0 0
5:55 pm 17:55 Cloudy with Light Rain 47 8.4 46 7.8 96 96 NNE 7 11 29.71 1006 1.5 2.41401 0 0
6:15 pm 18:15 Cloudy with Light Rain 47 8.4 46 7.9 97 97 NNE 8 13 29.71 1006 1.5 2.41401 0.01 0.254
6:35 pm 18:35 Cloudy with Rain 47 8.4 46 8 97 97 N 6 9 29.71 1006 1.75 2.816345 0.03 0.762
6:55 pm 18:55 Cloudy with Light Rain 47 8.3 46 7.8 97 97 N 7 11 29.71 1006 2.5 4.02335 0.04 1.016
7:15 pm 19:15 Cloudy with Light Rain 47 8.3 46 7.7 96 96 N 8 13 29.71 1006 2.5 4.02335 0.02 0.508
7:35 pm 19:35 Cloudy with Rain 47 8.1 46 7.6 97 97 N 9 15 29.71 1006 2.5 4.02335 0.04 1.016
7:55 pm 19:55 Cloudy with Light Rain 46 8 45 7.4 96 96 N 8 13 29.71 1006 3.5 5.63269 0.06 1.524
8:15 pm 20:15 Cloudy with Light Rain 47 8.1 46 7.5 96 96 N 7 11 29.71 1006 7 11.26538 0.02 0.508
8:35 pm 20:35 Cloudy with Rain 47 8.1 45 7.4 95 95 N 8 13 29.71 1006 5 8.0467 0.05 1.27
8:55 pm 20:55 Cloudy with Rain 47 8.1 45 7.4 95 95 N 7 11 29.71 1006 5 8.0467 0.09 2.286
9:15 pm 21:15 Cloudy with Light Rain 47 8.1 45 7.4 95 95 N 7 11 29.71 1006 5 8.0467 0 0
9:35 pm 21:35 Cloudy with Light Rain 47 8.1 45 7.3 95 95 N 7 11 29.71 1006 7 11.26538 0.01 0.254
9:55 pm 21:55 Cloudy with Light Rain 46 8 45 7.3 95 95 N 7 11 29.68 1005 7 11.26538 0.01 0.254
10:15 pm 22:15 Cloudy with Light Rain 46 8 45 7.3 95 95 N 7 11 29.71 1006 5 8.0467 0 0
10:35 pm 22:35 Cloudy with Light Rain 46 8 45 7.3 95 95 N 7 11 29.71 1006 7 11.26538 0 0
10:55 pm 22:55 Cloudy with Light Rain 46 8 45 7.3 95 95 N 7 11 29.71 1006 7 11.26538 0.01 0.254
11:15 pm 23:15 Cloudy 46 8 45 7.3 95 95 N 7 11 29.71 1006 10 16.0934 0 0
11:35 pm 23:35 Cloudy 46 8 45 7.2 95 95 N 6 9 29.68 1005 10 16.0934 0 0
11:55 pm 23:55 Cloudy with Mist and Fog 46 7.9 45 7.1 95 95 N 8 13 29.68 1005 5 8.0467 0 0

Powered by AerisWeather